Wind_Speed
16 13 16 15 13 13 13 17 11 9 9 10 11 11 12 11 12 17 17 16 15 15 16 15 16 25 29 14 16 13 14 14 7 22 22 23 28 27 22 20 19 15 19
15 11 14 15 12 13 12 14 12 9 9 8 11 12 13 15 14 14 15 17 18 17 17 15 19 20 26 19 13 13 11 13 13 25 23 25 18 24 21 23 17 15 21
12 10 11 14 11 11 14 12 13 10 7 8 8 11 11 14 16 17 17 16 15 14 15 15 15 21 18 15 13 8 11 8 16 25 23 23 25 17 21 18 18 18 21
11 10 10 13 12 10 13 13 11 11 8 6 6 7 10 12 14 19 19 16 14 12 11 12 10 13 14 15 11 10 6 9 13 16 23 23 23 21 18 20 22 23 21
10 8 9 14 13 13 14 17 11 9 7 3 7 8 8 10 14 15 18 18 14 12 11 10 10 9 10 10 11 11 9 9 15 18 16 20 23 23 22 25 25 22 19
9 9 10 15 15 15 15 16 13 15 14 10 5 9 11 14 15 15 15 16 15 14 12 9 9 9 11 7 9 8 2 9 10 17 15 22 24 25 26 27 26 25 22
9 10 12 15 14 14 15 15 16 17 15 15 8 11 14 16 14 13 14 15 16 15 11 10 11 12 13 16 6 4 5 8 18 21 22 23 22 19 25 26 26 22 10
8 10 10 11 12 12 14 15 17 20 20 17 14 10 18 16 14 15 11 12 14 16 15 16 17 17 18 13 9 6 5 12 17 20 21 25 23 25 26 17 9 8 8
6 9 10 11 11 12 14 14 16 19 22 22 19 14 21 16 12 12 11 12 7 10 12 15 12 14 14 16 14 12 19 24 19 23 22 21 21 14 12 10 8 8 7
4 8 10 11 11 11 14 15 16 18 20 24 25 23 15 14 13 8 11 7 4 10 13 15 10 11 12 14 19 27 24 22 24 23 19 16 14 12 9 8 7 6 8
5 5 8 8 9 9 10 11 13 15 18 21 24 29 26 23 19 20 19 16 15 19 19 26 22 20 20 23 23 23 25 21 16 15 13 11 9 7 7 7 8 9 11
5 4 5 5 6 8 10 12 12 14 17 18 20 23 24 26 27 25 25 21 22 21 22 27 27 28 22 21 22 16 16 13 10 9 8 7 7 7 6 8 10 12 15
4 5 4 3 4 6 10 13 15 15 17 19 21 21 21 21 20 21 21 20 18 17 18 19 17 17 16 14 12 9 7 6 7 7 6 5 5 7 9 12 15 16 19
4 6 5 5 4 5 7 11 12 14 16 19 20 20 21 21 21 20 18 17 16 15 13 11 11 10 10 10 9 9 8 7 5 5 5 7 9 11 14 16 18 19 22
7 6 6 5 6 7 7 10 10 9 9 11 13 15 15 16 16 15 14 13 13 12 10 9 8 7 6 5 4 4 3 4 6 8 9 10 11 14 16 18 21 24 27
11 9 8 8 7 8 8 7 9 9 6 5 5 6 8 9 10 9 8 7 7 7 6 5 4 4 4 3 3 4 4 5 6 8 9 11 14 17 19 22 25 28 30
15 13 11 10 10 10 11 9 7 8 8 6 4 4 1 1 3 5 3 2 2 2 2 2 3 3 4 4 5 6 6 7 9 12 14 16 17 18 21 25 29 31 32
14 17 16 15 13 12 12 12 11 10 8 8 8 7 7 6 5 5 5 3 2 1 3 6 8 8 8 8 9 8 9 11 14 16 18 20 23 27 28 29 28 30 32
19 16 18 18 17 16 15 14 14 13 13 12 11 11 11 10 9 10 10 10 10 10 10 10 11 11 13 13 13 14 17 18 19 18 18 23 31 32 31 31 31 30 33
22 22 21 22 21 20 18 18 18 18 17 16 16 15 14 13 13 13 13 13 14 15 14 14 12 13 13 15 19 22 22 24 24 25 26 29 33 33 33 32 31 33 36
22 23 23 24 23 22 21 20 21 21 22 21 20 18 18 17 17 16 16 16 17 17 16 16 16 16 17 20 17 17 21 26 29 32 33 33 34 32 32 33 37 43 43
25 25 25 25 26 24 24 25 23 22 23 24 24 23 21 19 19 18 18 19 20 20 18 19 19 23 23 24 25 25 27 29 37 34 31 34 31 31 40 41 42 44 45
29 30 30 29 27 27 27 27 26 25 23 24 25 24 25 25 24 23 21 21 21 21 23 23 24 24 25 27 28 29 30 33 33 32 31 33 36 40 42 43 43 46 48
34 33 34 35 32 29 30 30 29 29 28 27 26 25 27 28 28 27 26 25 25 27 26 26 27 28 29 31 32 33 34 35 34 34 36 39 41 43 43 44 44 44 41
35 40 37 39 38 34 32 32 31 30 29 29 28 24 25 28 28 29 31 31 30 28 28 29 28 28 30 32 34 35 36 37 38 38 41 43 43 44 45 45 43 45 47
39 42 40 40 42 40 35 33 34 31 29 30 30 30 28 28 29 30 32 33 32 31 31 30 31 32 33 34 36 38 40 39 40 42 44 43 44 45 42 42 42 54 52
Wind_Direction
351 359 5 3 15 11 25 31 40 72 117 121 116 126 137 148 162 162 157 146 146 151 145 118 137 159 159 157 163 172 161 193 174 177 174 176 171 183 196 174 163 177 187
354 359 10 8 19 24 38 34 49 79 96 116 119 128 139 154 159 160 155 142 149 138 130 123 149 166 172 173 184 178 198 154 143 159 160 170 178 191 195 199 196 191 192
8 7 14 8 22 38 30 34 45 63 97 101 120 128 140 155 167 165 158 154 144 151 145 129 144 167 165 182 181 190 183 153 156 172 168 172 182 189 192 184 188 188 179
25 22 18 13 24 54 52 54 59 58 78 104 134 147 156 157 166 178 175 179 174 174 165 162 151 156 168 178 188 207 191 162 156 168 181 190 186 180 180 183 180 175 193
32 28 20 43 54 55 45 41 58 71 48 87 141 155 162 164 163 166 179 183 188 193 198 190 187 193 192 189 185 228 209 148 165 172 172 178 184 187 179 181 173 185 200
50 47 49 66 65 61 51 53 63 69 44 37 158 149 140 143 150 163 169 168 171 184 190 187 179 176 156 199 198 209 202 152 174 168 178 163 165 177 183 185 189 196 202
65 65 62 72 68 70 64 63 60 55 40 48 99 158 149 144 146 151 163 176 177 187 187 169 151 156 161 188 222 159 205 168 167 165 162 174 170 175 180 188 191 199 173
75 81 72 68 68 68 71 64 65 61 54 54 61 115 159 143 139 141 141 164 167 164 166 153 156 164 167 176 215 210 164 166 163 174 179 185 190 186 182 152 132 149 194
71 87 82 74 71 69 74 68 60 61 61 60 65 91 137 148 164 163 164 149 147 172 185 164 155 176 192 180 194 172 151 139 146 152 154 149 130 117 120 152 172 195 221
85 88 93 86 79 72 70 69 66 64 64 67 75 87 102 127 137 144 169 174 147 164 182 189 159 146 162 176 167 163 167 160 148 110 111 120 136 151 175 192 212 243 264
113 105 104 91 82 79 72 67 73 77 77 76 81 88 94 94 98 97 98 96 90 98 114 130 122 119 131 144 152 156 115 104 115 122 132 146 165 184 206 229 246 265 285
126 138 129 107 81 81 82 87 86 86 87 87 85 88 87 92 94 91 92 88 85 88 100 86 90 89 87 87 88 106 123 129 138 149 165 178 195 218 244 259 273 280 283
157 147 168 152 112 101 98 99 101 98 96 94 94 92 94 97 98 102 106 104 100 96 98 103 108 112 119 125 127 131 138 158 172 179 194 207 227 243 257 265 275 283 285
178 170 163 172 166 146 124 121 111 107 103 99 94 92 92 92 93 96 98 99 102 104 105 105 109 114 122 133 131 132 139 148 159 183 212 234 246 257 268 277 284 291 293
184 178 173 175 177 178 166 151 143 127 118 108 100 95 90 87 90 92 93 96 101 105 109 115 121 126 133 140 145 156 184 215 228 237 249 262 277 285 291 294 295 294 295
192 186 181 181 187 191 192 186 171 166 158 143 128 101 85 80 75 74 79 84 88 94 104 123 144 161 173 174 185 204 223 244 263 277 288 297 298 297 295 293 293 295 294
195 202 199 192 192 197 202 207 204 185 186 192 196 197 181 38 26 24 37 50 49 46 9 317 297 281 268 265 257 245 249 265 278 287 294 296 297 300 301 299 295 296 301
204 208 208 209 211 211 211 213 219 220 214 211 222 234 243 262 291 312 312 283 273 283 285 295 295 289 283 284 284 292 305 295 289 289 287 284 290 294 292 295 295 297 303
215 213 217 214 218 223 225 222 223 228 233 236 235 241 252 268 279 287 289 282 286 283 276 286 292 284 281 288 292 291 303 305 308 308 309 310 315 311 306 297 299 301 308
231 226 224 221 223 225 226 228 231 230 232 235 242 249 257 264 269 273 281 276 285 285 288 291 282 276 277 280 286 291 296 302 306 304 302 306 303 315 306 302 301 309 310
238 237 231 228 227 228 228 229 234 238 238 236 238 244 249 253 259 262 267 268 270 271 278 288 291 282 278 281 298 292 292 295 297 293 300 300 305 301 310 313 312 313 304
245 242 238 232 228 225 227 230 235 235 237 241 245 248 250 251 248 254 260 265 265 267 275 283 286 285 288 288 289 291 297 299 307 306 295 299 297 307 308 307 307 302 304
249 249 244 240 238 231 228 229 232 235 243 250 250 250 249 250 251 256 256 254 255 265 278 285 292 291 287 287 291 293 297 303 305 307 305 304 304 306 306 306 304 300 299
251 250 250 243 240 240 234 230 234 238 241 244 246 251 254 253 254 255 253 254 258 265 275 282 288 288 289 290 292 294 297 299 296 293 296 301 303 309 310 310 308 312 312
248 251 252 251 239 239 240 237 236 238 238 240 243 250 253 252 252 252 254 256 259 265 271 275 279 283 286 290 292 294 294 294 297 296 296 300 304 305 308 309 309 307 309
246 246 246 248 243 238 235 239 240 237 240 240 242 244 245 246 250 252 255 258 261 263 265 269 274 278 283 285 286 287 288 291 292 294 298 301 305 306 309 297 297 304 308
Height
5728 5724 5721 5716 5713 5710 5707 5704 5701 5698 5698 5699 5699 5700 5702 5705 5707 5707 5708 5710 5712 5713 5717 5718 5718 5723 5727 5728 5731 5737 5740 5746 5748 5751 5754 5759 5765 5771 5777 5782 5787 5791 5794
5727 5724 5721 5717 5714 5711 5708 5706 5703 5701 5701 5702 5702 5702 5704 5706 5709 5711 5712 5714 5716 5717 5719 5721 5724 5727 5730 5734 5737 5740 5743 5746 5748 5751 5755 5760 5766 5772 5777 5782 5786 5790 5793
5726 5724 5721 5718 5715 5713 5710 5708 5705 5705 5705 5705 5705 5706 5707 5709 5711 5713 5715 5717 5719 5721 5724 5726 5728 5732 5736 5738 5740 5743 5745 5747 5750 5754 5758 5762 5767 5771 5775 5780 5785 5789 5793
5726 5724 5722 5718 5715 5714 5712 5710 5708 5706 5706 5706 5706 5707 5708 5710 5713 5715 5717 5720 5722 5724 5726 5729 5733 5736 5739 5741 5743 5744 5746 5747 5750 5754 5758 5763 5768 5771 5776 5780 5785 5790 5793
5727 5725 5722 5719 5717 5716 5714 5712 5710 5708 5706 5705 5706 5707 5709 5710 5713 5715 5718 5721 5723 5726 5728 5731 5734 5738 5740 5743 5745 5746 5747 5748 5751 5754 5759 5763 5767 5772 5777 5782 5786 5789 5792
5727 5725 5723 5722 5720 5718 5716 5714 5712 5710 5708 5706 5705 5708 5710 5712 5714 5716 5719 5722 5724 5726 5728 5731 5735 5738 5741 5743 5746 5746 5748 5750 5752 5755 5759 5762 5767 5772 5777 5782 5785 5788 5791
5728 5727 5725 5724 5723 5721 5720 5718 5716 5714 5710 5708 5706 5708 5712 5714 5716 5717 5720 5722 5724 5726 5729 5732 5735 5738 5742 5745 5747 5748 5749 5751 5754 5758 5761 5765 5769 5773 5778 5781 5784 5786 5790
5730 5729 5727 5727 5726 5725 5723 5722 5720 5717 5714 5710 5707 5708 5713 5716 5719 5721 5723 5724 5726 5728 5730 5734 5736 5737 5741 5744 5746 5749 5750 5753 5755 5759 5762 5765 5769 5773 5778 5782 5786 5789 5791
5731 5730 5729 5729 5729 5728 5727 5726 5724 5721 5719 5715 5711 5711 5714 5718 5721 5723 5725 5727 5729 5730 5731 5734 5737 5739 5740 5744 5745 5749 5753 5755 5757 5760 5763 5766 5771 5777 5780 5784 5787 5788 5789
5733 5732 5732 5732 5731 5731 5731 5730 5728 5727 5724 5721 5718 5717 5720 5722 5724 5725 5726 5728 5729 5729 5730 5733 5736 5739 5741 5743 5745 5750 5754 5758 5760 5764 5768 5771 5776 5778 5781 5783 5784 5785 5785
5733 5733 5733 5734 5734 5734 5734 5734 5732 5731 5730 5728 5727 5726 5726 5727 5729 5729 5730 5730 5731 5732 5733 5736 5738 5741 5744 5747 5751 5754 5757 5762 5765 5768 5771 5773 5776 5778 5780 5782 5783 5782 5782
5733 5734 5734 5735 5736 5736 5737 5737 5737 5736 5735 5734 5733 5733 5733 5733 5734 5735 5736 5737 5738 5738 5739 5742 5745 5748 5751 5754 5757 5760 5763 5765 5767 5770 5772 5773 5775 5778 5779 5780 5780 5778 5777
5733 5734 5735 5736 5737 5738 5739 5740 5741 5740 5740 5740 5739 5739 5740 5740 5741 5741 5742 5743 5745 5745 5746 5748 5750 5753 5756 5758 5761 5763 5766 5768 5770 5771 5772 5774 5775 5776 5777 5777 5776 5773 5772
5733 5734 5735 5736 5737 5739 5740 5742 5743 5744 5745 5745 5745 5745 5745 5746 5746 5747 5748 5749 5750 5752 5753 5754 5756 5758 5760 5762 5764 5766 5768 5769 5770 5771 5772 5773 5773 5773 5773 5772 5770 5768 5767
5732 5734 5735 5736 5737 5739 5741 5742 5744 5746 5747 5748 5749 5750 5750 5751 5751 5752 5752 5753 5754 5755 5757 5758 5759 5760 5762 5763 5764 5766 5767 5768 5769 5770 5771 5770 5769 5768 5767 5766 5765 5764 5762
5731 5732 5734 5735 5737 5739 5740 5742 5744 5745 5748 5749 5750 5752 5752 5753 5754 5754 5755 5756 5756 5757 5758 5759 5760 5761 5762 5763 5764 5765 5766 5767 5767 5767 5766 5764 5764 5763 5762 5761 5759 5757 5754
5728 5730 5732 5734 5736 5738 5740 5741 5742 5744 5746 5749 5750 5752 5753 5754 5755 5755 5755 5756 5756 5757 5757 5758 5759 5759 5760 5761 5761 5762 5762 5762 5762 5761 5760 5760 5759 5758 5757 5755 5752 5749 5746
5725 5727 5730 5732 5733 5735 5737 5739 5741 5742 5744 5746 5748 5750 5752 5753 5754 5754 5755 5755 5756 5756 5756 5756 5756 5757 5757 5757 5758 5758 5759 5758 5758 5757 5756 5755 5753 5751 5748 5746 5743 5740 5737
5722 5724 5726 5728 5730 5732 5734 5736 5738 5740 5741 5743 5745 5747 5748 5750 5752 5752 5753 5753 5753 5754 5754 5754 5754 5754 5754 5754 5754 5755 5755 5754 5753 5752 5751 5749 5747 5743 5741 5738 5735 5733 5729
5716 5719 5722 5724 5725 5728 5730 5732 5734 5735 5737 5739 5740 5742 5744 5746 5747 5748 5749 5750 5750 5750 5750 5751 5750 5751 5751 5751 5751 5750 5749 5748 5747 5746 5744 5742 5739 5736 5734 5731 5728 5725 5721
5711 5713 5716 5718 5721 5723 5724 5727 5729 5730 5732 5734 5735 5738 5740 5741 5742 5743 5744 5744 5744 5745 5745 5746 5746 5746 5747 5746 5746 5745 5745 5744 5742 5739 5736 5734 5732 5729 5726 5724 5721 5717 5712
5705 5707 5709 5712 5714 5716 5719 5720 5722 5724 5726 5728 5730 5732 5734 5735 5736 5737 5738 5738 5739 5739 5740 5741 5741 5740 5740 5740 5739 5739 5737 5736 5733 5730 5727 5726 5723 5721 5718 5715 5711 5706 5701
5699 5701 5702 5705 5708 5710 5711 5714 5716 5718 5720 5722 5724 5726 5727 5729 5730 5731 5731 5732 5732 5733 5733 5733 5734 5733 5732 5732 5731 5730 5729 5728 5725 5723 5720 5718 5716 5712 5708 5704 5700 5695 5690
5689 5693 5696 5698 5700 5703 5705 5707 5709 5710 5712 5714 5715 5718 5720 5722 5723 5723 5724 5725 5725 5726 5726 5727 5726 5726 5725 5723 5723 5722 5721 5720 5717 5715 5712 5709 5705 5702 5698 5694 5689 5683 5678
5680 5682 5685 5689 5691 5694 5696 5699 5700 5702 5704 5705 5708 5710 5712 5714 5715 5716 5716 5715 5716 5717 5718 5718 5718 5718 5717 5716 5714 5713 5712 5710 5707 5706 5702 5700 5696 5692 5688 5683 5678 5673 5667
5669 5671 5675 5679 5682 5684 5686 5690 5692 5693 5695 5697 5699 5700 5702 5704 5707 5708 5708 5708 5708 5708 5708 5708 5709 5708 5708 5707 5705 5703 5701 5699 5696 5694 5691 5689 5686 5681 5677 5671 5665 5662 5657